When you browse on this site, cookies collect data to enhance your experience and personalize the content and advertising you see.
Visit our Privacy Policy to learn more. By continuing to use the site, you agree to this use of cookies and data.
  • In Hungary
  • List of Countries
  • For 7 days
  • Water Temperature
  • Satellite Maps
  • Weather Map
  • News
  • Weather Widgets
  • user-avatar
    Login

    Hourly Weather Satif

    Today, 23 April, Tuesday

    Time Temperature Precipitation Wind Pressure Humidity
    00:00 +8°C° 0 mm 6 mps 662 mmHg 73%
    01:00 +8°C° 0 mm 5 mps 662 mmHg 77%
    02:00 +7°C° 0 mm 4 mps 661 mmHg 80%
    03:00 +8°C° 0 mm 3 mps 661 mmHg 83%
    04:00 +8°C° 0 mm 3 mps 662 mmHg 82%
    05:00 +8°C° 0 mm 3 mps 662 mmHg 82%
    06:00 +8°C° 0 mm 3 mps 663 mmHg 81%
    07:00 +10°C° 0 mm 4 mps 663 mmHg 72%
    08:00 +12°C° 0 mm 5 mps 664 mmHg 62%
    09:00 +14°C° 0 mm 6 mps 665 mmHg 53%
    10:00 +15°C° 0 mm 7 mps 665 mmHg 48%
    11:00 +16°C° 0 mm 7 mps 665 mmHg 43%
    12:00 +18°C° 0 mm 8 mps 666 mmHg 38%
    13:00 +18°C° 0 mm 8 mps 666 mmHg 36%
    14:00 +18°C° 0 mm 8 mps 666 mmHg 34%
    15:00 +20°C° 0 mm 8 mps 666 mmHg 31%
    16:00 +18°C° 0 mm 7 mps 665 mmHg 34%
    17:00 +17°C° 0 mm 6 mps 665 mmHg 36%
    18:00 +16°C° 0 mm 5 mps 665 mmHg 38%
    19:00 +15°C° 0 mm 5 mps 665 mmHg 40%
    20:00 +14°C° 0 mm 4 mps 666 mmHg 42%
    21:00 +13°C° 0 mm 4 mps 666 mmHg 43%
    22:00 +13°C° 0 mm 4 mps 666 mmHg 43%
    23:00 +13°C° 0 mm 4 mps 666 mmHg 42%

    Tomorrow, 24 April, Wednesday

    Time Temperature Precipitation Wind Pressure Humidity
    00:00 +13°C° 0 mm 3 mps 666 mmHg 42%
    01:00 +12°C° 0 mm 3 mps 666 mmHg 45%
    02:00 +12°C° 0 mm 3 mps 666 mmHg 47%
    03:00 +12°C° 0 mm 2 mps 666 mmHg 50%
    04:00 +12°C° 0 mm 2 mps 666 mmHg 60%
    05:00 +10°C° 0 mm 2 mps 667 mmHg 70%
    06:00 +10°C° 0 mm 3 mps 667 mmHg 80%
    07:00 +11°C° 0 mm 3 mps 668 mmHg 76%
    08:00 +12°C° 0 mm 3 mps 669 mmHg 72%
    09:00 +13°C° 0 mm 3 mps 669 mmHg 69%
    10:00 +16°C° 0 mm 3 mps 669 mmHg 64%
    11:00 +17°C° 0 mm 3 mps 670 mmHg 59%
    12:00 +18°C° 0 mm 3 mps 670 mmHg 54%
    13:00 +18°C° 0 mm 4 mps 670 mmHg 59%
    14:00 +17°C° 0 mm 4 mps 670 mmHg 64%
    15:00 +15°C° 0 mm 5 mps 669 mmHg 70%
    16:00 +14°C° 0.4 mm 4 mps 669 mmHg 74%
    17:00 +13°C° 0.4 mm 3 mps 669 mmHg 78%
    18:00 +12°C° 0.4 mm 3 mps 669 mmHg 82%
    19:00 +12°C° 0.1 mm 2 mps 669 mmHg 84%
    20:00 +12°C° 0.1 mm 2 mps 670 mmHg 85%
    21:00 +10°C° 0.1 mm 2 mps 670 mmHg 87%
    22:00 +10°C° 0 mm 2 mps 670 mmHg 88%
    23:00 +10°C° 0 mm 1 mps 670 mmHg 90%

    Day after tomorrow, 25 April, Thursday

    Time Temperature Precipitation Wind Pressure Humidity
    00:00 +10°C° 0 mm 1 mps 669 mmHg 91%
    01:00 +10°C° 0 mm 1 mps 669 mmHg 92%
    02:00 +10°C° 0 mm 1 mps 669 mmHg 92%
    03:00 +10°C° 0 mm 1 mps 669 mmHg 92%
    04:00 +10°C° 0 mm 1 mps 670 mmHg 90%
    05:00 +11°C° 0 mm 1 mps 670 mmHg 87%
    06:00 +12°C° 0 mm 1 mps 671 mmHg 85%
    07:00 +14°C° 0 mm 1 mps 672 mmHg 75%
    08:00 +15°C° 0 mm 1 mps 673 mmHg 66%
    09:00 +18°C° 0 mm 1 mps 673 mmHg 56%
    10:00 +20°C° 0 mm 1 mps 674 mmHg 50%
    11:00 +22°C° 0 mm 1 mps 674 mmHg 44%
    12:00 +23°C° 0 mm 1 mps 674 mmHg 38%
    13:00 +24°C° 0 mm 1 mps 674 mmHg 36%
    14:00 +24°C° 0 mm 1 mps 674 mmHg 34%
    15:00 +25°C° 0 mm 2 mps 674 mmHg 33%
    16:00 +23°C° 0 mm 2 mps 673 mmHg 40%
    17:00 +21°C° 0 mm 2 mps 673 mmHg 47%
    18:00 +19°C° 0 mm 2 mps 673 mmHg 55%
    19:00 +18°C° 0 mm 2 mps 673 mmHg 64%
    20:00 +16°C° 0 mm 2 mps 673 mmHg 73%
    21:00 +15°C° 0 mm 2 mps 673 mmHg 82%
    22:00 +15°C° 0 mm 1 mps 673 mmHg 85%
    23:00 +14°C° 0 mm 1 mps 673 mmHg 89%

    26 April, Friday

    Time Temperature Precipitation Wind Pressure Humidity
    00:00 +14°C° 0 mm 1 mps 673 mmHg 92%
    01:00 +14°C° 0 mm 1 mps 673 mmHg 93%
    02:00 +14°C° 0 mm 1 mps 673 mmHg 93%
    03:00 +14°C° 0 mm 2 mps 673 mmHg 94%
    04:00 +14°C° 0 mm 2 mps 673 mmHg 91%
    05:00 +14°C° 0 mm 2 mps 674 mmHg 89%
    06:00 +14°C° 0 mm 2 mps 674 mmHg 86%
    07:00 +15°C° 0 mm 2 mps 675 mmHg 75%
    08:00 +17°C° 0 mm 2 mps 676 mmHg 63%
    09:00 +18°C° 0 mm 3 mps 677 mmHg 51%
    10:00 +19°C° 0 mm 3 mps 677 mmHg 48%
    11:00 +19°C° 0 mm 3 mps 677 mmHg 46%
    12:00 +20°C° 0 mm 4 mps 677 mmHg 43%
    13:00 +20°C° 0 mm 4 mps 676 mmHg 46%
    14:00 +19°C° 0 mm 5 mps 676 mmHg 49%
    15:00 +19°C° 0 mm 5 mps 676 mmHg 51%
    16:00 +17°C° 0.2 mm 5 mps 675 mmHg 59%
    17:00 +15°C° 0.2 mm 4 mps 675 mmHg 67%
    18:00 +13°C° 0.2 mm 4 mps 675 mmHg 74%
    19:00 +12°C° 0.1 mm 3 mps 675 mmHg 79%
    20:00 +12°C° 0.1 mm 3 mps 676 mmHg 83%
    21:00 +12°C° 0.1 mm 2 mps 676 mmHg 87%
    22:00 +10°C° 0.1 mm 2 mps 676 mmHg 88%
    23:00 +10°C° 0.1 mm 2 mps 676 mmHg 89%

    27 April, Saturday

    Time Temperature Precipitation Wind Pressure Humidity
    00:00 +11°C° 0.1 mm 1 mps 676 mmHg 90%
    01:00 +10°C° 0.1 mm 1 mps 676 mmHg 90%
    02:00 +9°C° 0.1 mm 2 mps 675 mmHg 91%
    03:00 +9°C° 0.1 mm 2 mps 675 mmHg 92%
    04:00 +9°C° 0 mm 2 mps 675 mmHg 91%
    05:00 +9°C° 0 mm 2 mps 676 mmHg 90%
    06:00 +9°C° 0 mm 2 mps 676 mmHg 88%
    07:00 +10°C° 0 mm 2 mps 676 mmHg 80%
    08:00 +13°C° 0 mm 2 mps 677 mmHg 72%
    09:00 +13°C° 0 mm 3 mps 677 mmHg 64%
    10:00 +14°C° 0 mm 3 mps 678 mmHg 60%
    11:00 +16°C° 0 mm 3 mps 678 mmHg 57%
    12:00 +18°C° 0 mm 3 mps 678 mmHg 53%
    13:00 +18°C° 0 mm 3 mps 678 mmHg 54%
    14:00 +18°C° 0 mm 4 mps 677 mmHg 55%
    15:00 +17°C° 0 mm 5 mps 677 mmHg 56%
    16:00 +17°C° 0 mm 4 mps 677 mmHg 62%
    17:00 +14°C° 0 mm 4 mps 677 mmHg 67%
    18:00 +13°C° 0 mm 4 mps 676 mmHg 73%
    19:00 +12°C° 0 mm 3 mps 677 mmHg 78%
    20:00 +12°C° 0 mm 2 mps 677 mmHg 82%
    21:00 +10°C° 0 mm 2 mps 677 mmHg 86%
    22:00 +9°C° 0 mm 2 mps 677 mmHg 87%
    23:00 +10°C° 0 mm 1 mps 677 mmHg 88%

    28 April, Sunday

    Time Temperature Precipitation Wind Pressure Humidity
    00:00 +9°C° 0 mm 1 mps 677 mmHg 89%
    01:00 +9°C° 0 mm 1 mps 676 mmHg 88%
    02:00 +9°C° 0 mm 1 mps 676 mmHg 88%
    03:00 +8°C° 0 mm 1 mps 676 mmHg 87%
    04:00 +9°C° 0 mm 1 mps 676 mmHg 81%
    05:00 +9°C° 0 mm 1 mps 676 mmHg 75%
    06:00 +10°C° 0 mm 1 mps 676 mmHg 68%
    07:00 +12°C° 0 mm 1 mps 676 mmHg 60%
    08:00 +13°C° 0 mm 1 mps 677 mmHg 51%
    09:00 +15°C° 0 mm 1 mps 677 mmHg 42%
    10:00 +18°C° 0 mm 1 mps 677 mmHg 39%
    11:00 +19°C° 0 mm 1 mps 677 mmHg 36%
    12:00 +21°C° 0 mm 1 mps 677 mmHg 33%
    13:00 +21°C° 0 mm 1 mps 677 mmHg 33%
    14:00 +20°C° 0 mm 2 mps 677 mmHg 33%
    15:00 +21°C° 0 mm 2 mps 676 mmHg 34%
    16:00 +20°C° 0 mm 2 mps 676 mmHg 39%
    17:00 +19°C° 0 mm 2 mps 675 mmHg 45%
    18:00 +17°C° 0 mm 2 mps 675 mmHg 51%
    19:00 +16°C° 0 mm 2 mps 675 mmHg 55%
    20:00 +15°C° 0 mm 2 mps 675 mmHg 59%
    21:00 +14°C° 0 mm 2 mps 675 mmHg 63%
    22:00 +14°C° 0 mm 2 mps 674 mmHg 62%
    23:00 +14°C° 0 mm 2 mps 674 mmHg 60%
    Show more